Location: Ammerl�gen
(47.2167°N, 9.6000°E)
Time: 15:41:24
(UTC+00:00)

Meteor 2-15 Rocket - Pass Details

Date: 21 April 2021
Orbit: 939 x 956 km, 82.5° (Epoch: 07 May)

Event Time Altitude Azimuth Distance (km) Brightness Sun altitude
Exits shadow 21:27:31 52° 196° (SSW) 1,152 4.6 -25.5°
Maximum altitude 21:29:06 84° 280° (W) 951 4.4 -25.6°
Drops below altitude 10° 21:35:12 10° 8° (N) 2,664 7.4 -26.2°
Sets 21:37:42 0° 10° (N) 3,613 8.2 -26.4°
